Вернуться в каталог

COSMOS 2329

АктивенВоенныеPO
NORAD 23791·PAYLOAD·🇷🇺 Russia

Запущен Feb 19, 1996 с Plesetsk Cosmodrome

Loading…

Ближайшие Пролёты (ближайшие 24 часа)

TLE

СвежийSource: Space-Track

Эпоха: Sep 14, 2026, 01:35 UTC

1 23791U 96009E   26257.06617115  .00000009  00000-0 -90571-5 0  9992
2 23791  82.5667 269.1425 0007998 218.5360 163.8792 12.61706588407578

Отслеживайте COSMOS 2329 в реальном времени с AllMySat

Download on the App Store